軌道要素
Epoch 2024 Oct. 17.0 TT = JDT 2460600.5
T 2024 Jan. 30.19358 TT Rudenko
q 1.4710885 (2000.0) P Q
z +0.0119218 Peri. 321.51572 -0.66901390 -0.37704168
+/-0.0000076 Node 220.68342 -0.14445877 -0.77937988
e 0.9824620 Incl. 79.28615 -0.72907617 +0.50040641
>From 556 observations 2024 Feb. 14-Aug. 14, mean residual 0".7.
|